Regional Weather Roundup
Issued by NWS Memphis, TN

Home | Current Version | Previous Version | Text Only | Print | Product List | Glossary On
Versions: 1 2 3 4 5 6 7 8 9 10 11 12 13 14 15 16 17 18 19 20 21 22 23 24 25 26 27 28 29 30 31 32 33 34 35 36 37 38 39 40 41 42 43 44 45 46 47 48 49 50
000
ASUS44 KMEG 172000
RWRMEG
MEMPHIS CWA HOURLY WEATHER ROUNDUP
NATIONAL WEATHER SERVICE MEMPHIS TN
300 PM CDT WED SEP 17 2014

...WEST TENNESSEE...

CITY           SKY/WX    TMP DP  RH WIND       PRES   REMARKS
MEMPHIS INTL   CLOUDY    75  61  61 N6        29.99F
NWS MEMPHIS      N/A     72 N/A N/A MISG        N/A
JACKSON        CLOUDY    71  55  56 CALM      29.99F
SAVANNAH       SUNNY     73  54  49 N6        30.00S
DYERSBURG      CLOUDY    66  52  59 SE3       29.96F
UNION CITY     SUNNY     66  55  68 SE6       29.95F
PARIS          SUNNY     66  55  68 SE6       29.99S


...EASTERN ARKANSAS...

CITY           SKY/WX    TMP DP  RH WIND       PRES   REMARKS
JONESBORO      CLOUDY    65  59  81 CALM      30.00F
WEST MEMPHIS   CLOUDY    74  63  68 NE7       29.97F
BATESVILLE     CLOUDY    68  61  77 NE6       30.02R
WALNUT RIDGE   CLOUDY    63  57  82 NW7       30.02R
BLYTHEVILLE    CLOUDY    66  60  81 S8        29.97S
STUTTGART      CLOUDY    81  70  69 N6        29.97S
PINE BLUFF     CLOUDY    85  68  56 NE3       29.95S
MONTICELLO     PTSUNNY   86  67  52 E6        29.93F


...NORTH MISSISSIPPI...

CITY           SKY/WX    TMP DP  RH WIND       PRES   REMARKS
TUPELO         PTSUNNY   80  63  55 VRB5      29.96F
GREENWOOD      MOSUNNY   89  67  47 NW3       29.93F HX  92
COLUMBUS       PTSUNNY   83  65  54 NW9       29.96S
STARKVILLE     FAIR      82  64  54 N3        29.96S
GOLDEN TRIANGL PTSUNNY   88  66  48 W7        29.96F HX  90


...SOUTHEAST MISSOURI...

CITY           SKY/WX    TMP DP  RH WIND       PRES   REMARKS
WEST PLAINS    CLOUDY    63  60  90 SW10      29.95F
POPLAR BLUFF   CLOUDY    61  56  83 CALM      29.97R
CAPE GIRARDEAU CLOUDY    65  58  78 SE5       29.97F


...NORTHWEST ALABAMA...

CITY           SKY/WX    TMP DP  RH WIND       PRES   REMARKS
MUSCLE SHOALS  PTSUNNY   80  54  40 CALM      29.97F


...MIDDLE TENNESSEE...

CITY           SKY/WX    TMP DP  RH WIND       PRES   REMARKS
NASHVILLE      CLOUDY    73  55  53 NW6       30.00F
CLARKSVILLE    CLOUDY    72  53  51 NE3       29.98F


...WESTERN KENTUCKY...

CITY           SKY/WX    TMP DP  RH WIND       PRES   REMARKS
PADUCAH        CLOUDY    72  56  57 SE7       29.97F
FORT CAMPBELL  CLOUDY    71  54  55 E5        29.97F


...CENTRAL ARKANSAS...

CITY           SKY/WX    TMP DP  RH WIND       PRES   REMARKS
LITTLE ROCK    PTSUNNY   84  66  54 VRB5      29.96F


SKY/WX REPORTED AS FAIR MEANS FEW OR NO CLOUDS BELOW
12 THOUSAND FEET.



USA.gov is the U.S. government's official web portal to all federal, state and local government web resources and services.